CPA339 SVMC-TNCA

Flight info

Callsign CPA339
Flight time 0h 21m
Altitude 26000
Route MAURO1 MAU UL450 NOREX NORE2A ELUMO
Aircraft A21N/M-SDE2E3FGHIJ5LORVWXY/LB1D1

Departure

Time 2026-04-30 10:56
Airport La Chinita International Airport (SVMC)

Arrival

Time 2026-04-30 11:17
Airport Queen Beatrix International Airport (TNCA)
Time Latitude Longitude Altitude Speed Heading
2026-04-30 10:43 10.55789 -71.72363 209 ft 0 kts 113°
2026-04-30 10:46 10.55793 -71.72370 210 ft 2 kts 134°
2026-04-30 10:46 10.55801 -71.72378 210 ft 0 kts 133°
2026-04-30 10:47 10.55808 -71.72386 210 ft 0 kts 128°
2026-04-30 10:47 10.55812 -71.72392 210 ft 1 kts 85°
2026-04-30 10:47 10.55809 -71.72398 210 ft 0 kts 31°
2026-04-30 10:47 10.55804 -71.72400 210 ft 1 kts 20°
2026-04-30 10:48 10.55801 -71.72401 210 ft 0 kts 22°
2026-04-30 10:50 10.55802 -71.72401 210 ft 0 kts 22°
2026-04-30 10:50 10.55809 -71.72398 210 ft 5 kts 19°
2026-04-30 10:51 10.55890 -71.72389 211 ft 12 kts 345°
2026-04-30 10:51 10.55940 -71.72436 212 ft 9 kts 295°
2026-04-30 10:51 10.55967 -71.72501 213 ft 10 kts 292°
2026-04-30 10:51 10.55996 -71.72571 215 ft 12 kts 294°
2026-04-30 10:52 10.56063 -71.72586 217 ft 12 kts 15°
2026-04-30 10:52 10.56712 -71.72313 223 ft 11 kts 22°
2026-04-30 10:52 10.56822 -71.72267 224 ft 11 kts 13°
2026-04-30 10:52 10.56935 -71.72266 226 ft 21 kts
2026-04-30 10:53 10.57015 -71.72267 228 ft 5 kts 353°
2026-04-30 10:53 10.57035 -71.72274 229 ft 2 kts 332°
2026-04-30 10:53 10.57042 -71.72281 230 ft 0 kts 309°
2026-04-30 10:53 10.57043 -71.72281 230 ft 0 kts 309°
2026-04-30 10:54 10.57045 -71.72283 230 ft 1 kts 308°
2026-04-30 10:54 10.57062 -71.72317 231 ft 4 kts 291°
2026-04-30 10:54 10.57072 -71.72342 232 ft 2 kts 280°
2026-04-30 10:54 10.57053 -71.72366 233 ft 9 kts 211°
2026-04-30 10:55 10.57006 -71.72387 232 ft 0 kts 203°
2026-04-30 10:55 10.56941 -71.72415 231 ft 41 kts 202°
2026-04-30 10:55 10.56418 -71.72634 227 ft 116 kts 202°
2026-04-30 10:55 10.55469 -71.73045 211 ft 176 kts 199°
2026-04-30 10:56 10.54204 -71.73537 526 ft 201 kts 200°
2026-04-30 10:56 10.52938 -71.74024 1375 ft 197 kts 199°
2026-04-30 10:56 10.51664 -71.74503 2213 ft 195 kts 198°
2026-04-30 10:56 10.50372 -71.75028 2800 ft 209 kts 202°
2026-04-30 10:57 10.48972 -71.75579 3283 ft 224 kts 187°
2026-04-30 10:57 10.47673 -71.75475 3642 ft 234 kts 154°
2026-04-30 10:57 10.46429 -71.74401 4098 ft 245 kts 116°
2026-04-30 10:57 10.46094 -71.72705 4658 ft 254 kts 81°
2026-04-30 10:58 10.46834 -71.71099 5388 ft 259 kts 49°
2026-04-30 10:58 10.48148 -71.69836 6136 ft 263 kts 45°
2026-04-30 10:58 10.49478 -71.68547 6789 ft 269 kts 46°
2026-04-30 10:58 10.50863 -71.67181 7207 ft 285 kts 46°
2026-04-30 10:59 10.52323 -71.65733 7562 ft 302 kts 46°
2026-04-30 10:59 10.53870 -71.64192 7889 ft 320 kts 46°
2026-04-30 10:59 10.55513 -71.62557 8190 ft 337 kts 46°
2026-04-30 10:59 10.57213 -71.60854 8471 ft 353 kts 46°
2026-04-30 11:00 10.58967 -71.59026 8731 ft 368 kts 52°
2026-04-30 11:00 10.60266 -71.56748 8854 ft 382 kts 70°
2026-04-30 11:00 10.60883 -71.54074 8872 ft 387 kts 81°
2026-04-30 11:00 10.61251 -71.51379 8898 ft 388 kts 83°
2026-04-30 11:01 10.61608 -71.48645 9402 ft 390 kts 82°
2026-04-30 11:01 10.61988 -71.45949 10090 ft 389 kts 82°
2026-04-30 11:01 10.62400 -71.43214 10627 ft 393 kts 81°
2026-04-30 11:01 10.62832 -71.40466 11102 ft 397 kts 81°
2026-04-30 11:02 10.63278 -71.37695 11571 ft 401 kts 81°
2026-04-30 11:02 10.63736 -71.34892 12046 ft 405 kts 81°
2026-04-30 11:02 10.64204 -71.32043 12527 ft 408 kts 81°
2026-04-30 11:02 10.64677 -71.29177 13002 ft 411 kts 81°
2026-04-30 11:03 10.65151 -71.26314 13447 ft 415 kts 81°
2026-04-30 11:03 10.67973 -71.09181 15933 ft 418 kts 81°
2026-04-30 11:03 10.68704 -71.06284 16067 ft 429 kts 68°
2026-04-30 11:04 10.72680 -71.01732 16596 ft 445 kts 33°
2026-04-30 11:04 10.75337 -71.00133 16998 ft 447 kts 31°
2026-04-30 11:04 10.78054 -70.98515 17355 ft 450 kts 31°
2026-04-30 11:04 10.80776 -70.96883 17695 ft 453 kts 31°
2026-04-30 11:05 10.83479 -70.95255 18040 ft 456 kts 32°
2026-04-30 11:05 10.86247 -70.93577 18405 ft 458 kts 32°
2026-04-30 11:05 10.88964 -70.91924 18759 ft 460 kts 32°
2026-04-30 11:05 10.96233 -70.87497 19656 ft 462 kts 32°
2026-04-30 11:06 11.01112 -70.84521 19834 ft 467 kts 32°
2026-04-30 11:06 11.18817 -70.73686 19855 ft 468 kts 32°
2026-04-30 11:06 11.70974 -70.42100 19823 ft 471 kts 29°
2026-04-30 11:07 11.73862 -70.40464 19830 ft 471 kts 30°
2026-04-30 11:07 11.90314 -70.30927 19873 ft 472 kts 31°
2026-04-30 11:07 12.08222 -70.19980 19845 ft 471 kts 31°
2026-04-30 11:07 12.17498 -70.14412 19853 ft 472 kts 31°
2026-04-30 11:08 12.23488 -70.10819 19847 ft 473 kts 31°
2026-04-30 11:08 12.26263 -70.09151 19790 ft 457 kts 31°
2026-04-30 11:09 12.28300 -70.07886 4182 ft 261 kts 36°
2026-04-30 11:09 12.30043 -70.07041 4173 ft 294 kts 17°
2026-04-30 11:09 12.32202 -70.07104 4177 ft 326 kts 346°
2026-04-30 11:09 12.34259 -70.08259 4191 ft 350 kts 322°
2026-04-30 11:10 12.36081 -70.09998 4204 ft 366 kts 316°
2026-04-30 11:10 12.37931 -70.11856 4208 ft 378 kts 318°
2026-04-30 11:10 12.39906 -70.13722 4207 ft 382 kts 320°
2026-04-30 11:10 12.41791 -70.15453 4179 ft 346 kts 316°
2026-04-30 11:11 12.43085 -70.17380 4147 ft 315 kts 292°
2026-04-30 11:11 12.43766 -70.19404 4047 ft 291 kts 287°
2026-04-30 11:11 12.44351 -70.21358 3558 ft 285 kts 289°
2026-04-30 11:11 12.45299 -70.23058 3224 ft 267 kts 322°
2026-04-30 11:12 12.46844 -70.23868 2916 ft 241 kts 359°
2026-04-30 11:12 12.48437 -70.23762 2604 ft 219 kts 22°
2026-04-30 11:12 12.49860 -70.23340 2378 ft 209 kts 24°
2026-04-30 11:12 12.51399 -70.22874 2385 ft 246 kts 22°
2026-04-30 11:13 12.53073 -70.22333 2367 ft 251 kts 31°
2026-04-30 11:13 12.54288 -70.21198 2339 ft 229 kts 68°
2026-04-30 11:13 12.54509 -70.19685 2356 ft 217 kts 97°
2026-04-30 11:13 12.54189 -70.18170 2359 ft 217 kts 104°
2026-04-30 11:14 12.53783 -70.16692 2347 ft 210 kts 104°
2026-04-30 11:14 12.53419 -70.15294 2311 ft 198 kts 103°
2026-04-30 11:14 12.53090 -70.13945 2176 ft 190 kts 102°
2026-04-30 11:14 12.52784 -70.12656 1935 ft 184 kts 102°
2026-04-30 11:15 12.52492 -70.11422 1651 ft 169 kts 102°
2026-04-30 11:15 12.52227 -70.10303 1419 ft 159 kts 102°
2026-04-30 11:15 12.51966 -70.09200 1257 ft 158 kts 102°
2026-04-30 11:15 12.51715 -70.08149 1050 ft 146 kts 102°
2026-04-30 11:16 12.51483 -70.07171 865 ft 140 kts 102°
2026-04-30 11:16 12.51253 -70.06201 704 ft 142 kts 102°
2026-04-30 11:16 12.51016 -70.05215 524 ft 143 kts 103°
2026-04-30 11:16 12.50748 -70.04217 322 ft 147 kts 104°
2026-04-30 11:17 12.50520 -70.03175 132 ft 150 kts 98°
2026-04-30 11:17 12.50291 -70.02177 28 ft 135 kts 103°
2026-04-30 11:17 12.50125 -70.01474 45 ft 32 kts 98°
2026-04-30 11:17 12.50132 -70.01429 48 ft 2 kts 72°
2026-04-30 11:18 12.50136 -70.01421 48 ft 5 kts 55°
2026-04-30 11:18 12.50228 -70.01384 53 ft 3 kts 15°
2026-04-30 11:18 12.50244 -70.01379 54 ft 1 kts 15°
2026-04-30 11:19 12.50280 -70.01386 55 ft 7 kts 306°
2026-04-30 11:19 12.50323 -70.01426 54 ft 9 kts 54°
2026-04-30 11:19 12.50336 -70.01381 55 ft 1 kts 75°
2026-04-30 11:19 12.50338 -70.01374 56 ft 5 kts 75°
2026-04-30 11:20 12.50372 -70.01363 57 ft 3 kts 352°
2026-04-30 11:20 12.50392 -70.01367 58 ft 2 kts 343°
2026-04-30 11:20 12.50395 -70.01368 58 ft 0 kts 343°